"Pseudo-MPEC" for N00hurv
Created 2021 Jan 21 12:07:12 UT using Find_Orb
Click here for an explanation of pseudo-MPECs
Astrometry: N00hurv C2020 12 26dMkuyFb:k8A8c3DxVua1C]IUcsu;u9ifhBgP\]uN=f
AstrometryF51 N00hurv C2020 12 26
=P0;`+Vq):t^#mYira/`)Pk?4fm4)Y+4CN)WF2KtpNB*Fe.t=k%.
F51 N00hurv C2020 12 2619NX'Xl2F5ftCt*nIUvk_wV;_*XP/@ao@)'2o'!6!t3P$(y3XDrU
F51 N00hurv KC2020 12 26hn^FEHA`J6Z.qFWxHmyB')c(4uL`QNE?ODgp+7`eyW2WU4$.V+80
F51 N00hurv S2021 01 12HtxD!_O
redacted;[gNsgfXYLCX]/i8Cn!SSmdAbFv!uXi#2_vLT
C51 N00hurv s2021 01 123RRk6a[(+))8\P^r?^nt3L=7_#39)BL[tqq[,@5]Yr45V`.;T)N[
C51 N00hurv S2021 01 12?t#S3`u9BI0m^=G%R+8$sM[Y6PgsXHsxBQ+/7ZHY)3MgPNF\Y^a,
C51 N00hurv s2021 01 12fveSO8UHjxyO-k/0$8C+ZMZcm?$+T?a4L6M(^qZ8GA]VQaINm]UM
C51 N00hurv S2021 01 12c?@\w@AR:(ffmHWe(IfJ,BUGE*:(_gF$b\V\$.v,N=%ve6an9'y#
C51 N00hurv s2021 01 12sFIWa+=(+uDhQ'l9WRhtWd`G%T`,L_/y`21GN)##NkUU7Hfjja!T
C51 N00hurv S2021 01 12GI3Ucs[#)4coE0gMmkQA6`PN.=ryXs-%vA4`:Icw]LG)64V)Ya%p
C51 N00hurv s2021 01 12G/x0Lp/^Cct7QZ,w]8#*ums+PRmU:eJkJ3PH*mBuyV'ySe70I2#B
C51 N00hurv S2021 01 12SuecwY(R^sVq#$UKFQJV2#/Qos![vCS*rmJRuV6H2a7=Q7nUnZ2W
C51 N00hurv s2021 01 122[Q3q'0J1]C$auy=eHOL(@iY27hZrT7^6BK-$515rTn3)GPnIZuQ
C51 N00hurv S2021 01 12Td0fVR(-lfw47*lL;(yJP2-w=VGwQx+ocL%oL-MS-]yES[xW10d/
C51 N00hurv s2021 01 12't0X%.duK6TAbw[iQB.hA-u#+RhoqwwkaUqp?Fu/pLHa,y)nAJ!=
C51 N00hurv C2021 01 13',opUfGR2/.]Y')T7]%=TM$`-.GW/9o4/$TVW@??#x`-kx2.R_2l
F52 N00hurv C2021 01 13?sf+c_D2M-6[=G]fY5g@BXrTAJmSf'pS2YlVE?c
click[Z]=I\Sj
F52 N00hurv C2021 01 13Vu#(
here*DRQQHXKjQ=v6=16xnmorOH_x?g\csgoA_'9dLj[L@qD
F52 N00hurv KC2021 01 14Q.v!kr*n4CF.d(K]I@X/HqsN;U5Lx@4t@i@ls4[pZiZ:q?5ON7eo
H21 N00hurv KC2021 01 14.40925213 46 29.73 +10 14 33.8 ~1EAM 20.36GVNEOCPI52 N00hurv KC2021 01 141?*7KLlk;28is94t*VkJEux\OTGEeg)#_TO+Dlgre'-'U77a]u:s
H21 N00hurv KC2021 01 14.41232713 46 29.72 +10 14 43.6 ~1EAM 20.90GVNEOCPI52 N00hurv KC2021 01 14.41539713 46 29.77 +10 14 53.4 ~1EAM 20.45GVNEOCPI52 N00hurv KC2021 01 14.41846813 46 29.74 +10 15 03.8 ~1EAM 20.91GVNEOCPI52 N00hurv KC2021 01 14%nAJZbS]!bf,d$.,ws3^TBukB7(r+wyw!39TJ:pjF2UKt;G(`!J5
H21 N00hurv |C2021 01 15GlL)dW+;1\xuKI5A96.Ha(c=Pk#+o8,?6Puv;X8:Scci_V%
form%
H06 N00hurv |C2021 01 15@OB]Yh:e]RqyK-Z)V=aHWn2t]qQ06mRMMtgl2tceEKE!TU?o$Pcj
H06 N00hurv |C2021 01 15K!;VqYfbr5SGWEY+cDP4DRByKkWUT!Z/6[uVCVO2/vC//NLS%:w1
H06 N00hurv C2021 01 15\Q6Mbk[dLEZ0s#fiOR38aadn@$F+:wAg9g#WmH8/(H\+h^t=6aVQ
F51 N00hurv C2021 01 15I@Fiylu9Cp[\]^nP``:Bbv'P5!mK=#Wfx#/wo^jlUK(lcvC#\7Ex
F51 N00hurv C2021 01 153LNH(vNES+eQ.t(W3sIhxQ4(W?H?=6Ek^MAfLuK7L3f/jy\mAZyU
F51 N00hurv KC2021 01 16P'gJE5ibKh.dO*B$VZ+i:4Sv't0)aap1-`ToeBW)8-4[1joYo0GH
L01 N00hurv KC2021 01 16,Ov=/%$
explanationqPiXjw'U?__2FMm1=b(P18x3E'/jhtarcs
L01 N00hurv KC2021 01 16b:!rY`1E,^l=!TE+?^)R]d;yU^MpV6j?Pkkc+c7`U.;d.F)F*6)H
L01 N00hurv KC2021 01 16Q\#5/NFyr?)=0FHf/9e!AO/A2U%H8NTN+C]Yi6QbsHr@p8Ocne9w
L01 N00hurv KC2021 01 16t[0P:2hh@=tdT--E9paB^2[huS\`m4[(DeB0S1QJ_;YF$_LvGo[Y
204 N00hurv KC2021 01 16*#T]9o*MP2K;U\H@3M%(,K*deW:fuydRSGl,sREmM'pmnCLv)xZG
204 N00hurv 1C2021 01 17.08722 13 46 26.49 +12 51 53.9 ~1H87 21.5 VVNEOCP033 N00hurv 1C2021 01 17.08930 13 46 26.47 +12 52 02.3 ~1H87 21.4 VVNEOCP033 N00hurv 1C2021 01 17.09139 13 46 26.45 +12 52 10.6 ~1H87 21.3 VVNEOCP033 N00hurv KC2021 01 18.46021013 46 16.47 +14 23 18.6 ~1IBM 20.85GVNEOCPI52 N00hurv KC2021 01 18.46147113 46 16.44 +14 23 23.2 ~1IBM 20.35GVNEOCPI52 N00hurv KC2021 01 18.46273213 46 16.42 +14 23 28.4 ~1IBM 20.54GVNEOCPI52 N00hurv KC2021 01 18.46399113 46 16.44 +14 23 33.7 ~1IBM 20.34GVNEOCPI52 Station data: (033) Karl Schwarzschild Observatory, Tautenburg (N50.980140 E11.711240) Germany. 1.3-m Schmidt. (204) Schiaparelli Observatory (N45.867933 E8.770800) Italy. Observer L. Buzzi. 0.60-m f/4.64 Newtonian + CCD. (C51) WISE. Measurers A. Mainzer, E. Wright, J. Bauer, T. Grav, J. Dailey, J. Masiero, R. Cutri, R. McMillan, R. Walker. (F51) Pan-STARRS 1, Haleakala (N20.707235 W156.255910) US/Hawaii. Observers N. Primak, A. Schultz, S. Watters, J. Thiel, T. Goggia. Measurer PS1 Science Consortium. 1.8-m Ritchey-Chrétien + CCD. (F52) Pan-STARRS 2, Haleakala (N20.707384 W156.255910) US/Hawaii. 1.8-m Ritchey-Chrétien + CCD. (H06) RAS Observatory, Mayhill (N32.903325 W105.528700) US/New Mexico. Observers E. Guido, G. Sostero, V. Gonano, L. Donato. (H21) Astronomical Research Observatory, Westfield (N39.483057 W87.968270) US/Illinois. 0.76-m f/3.0 astrograph + CCD. (I52) Steward Observatory, Mt. Lemmon Station (N32.442547 W110.788920) US/Arizona. Observers T. A. Pruyne, B. M. Africano, E. J. Christensen, G. A. Farneth, D. C. Fuls, A. R. Gibbs, A. D. Grauer, H. Gröller, J. A. Johnson, R. A. Kowalski, S. M. Larson, G. J. Leonard, D. Rankin, R. L. Seaman, F. C. Shelly. 1.0-m reflector + CCD. (L01) Višnjan Observatory, Tičan (N45.290900 E13.749300) Croatia. Observers K. Korlević, E. Pettarin. Measurer E. Pettarin. 1.0-m f/2.9 reflector + CCD. Orbital elements: N00hurv Perihelion 2021 Mar 15.280475 +/- 0.0595039 TT = 6:43:53 (JD 2459288.780475) Epoch 2021 Jan 18.0 TT = JDT 2459232.5 Earth MOID: 0.5802 Ju: 0.7522 M 359.93474349 +/- 0.0136779 (J2000 ecliptic) AutoNEOCP n 0.00115948 +/- 0.000283452 Peri. 82.27536 +/- 0.0353497 a 89.7343387 +/- 14.6775 Node 188.34571 +/- 0.0094096 e 0.9858642 +/- 0.00230388 Incl. 151.52507 +/- 0.0034454 P 850.04 H 18.3 G 0.15 U 7.3 q 1.26845816 +/- 0.000291236 Q 178.200219 +/- 61.5245 From 39 observations 2020 Dec. 26-2021 Jan. 18; mean residual 0".36
Residuals in arcseconds: 201226 F51 .14+ .03+ 210114 H21 .36- .56- 210116 L01 .52+ .14- 201226 F51 .03- .06+ 210114 I52 .00 .18+ 210116 L01 .18+ .53+ 201226 F51 .08- .14- 210114 H21 .24- .53- 210116 L01 .18+ .20- 201226 F51 .03- .06+ 210114 I52 .18- .03- 210116 L01 .40- .65+ 210112 C51 1.2+ .14+ 210114 I52 .52+ .22- 210116 204 .05+ .40+ 210112 C51 .55+ .96+ 210114 I52 .04+ .18+ 210116 204 .05- .00 210112 C51 .19+ .15- 210114 H21 .71- .74- 210117 033 .24+ .48- 210112 C51 .47+ 1.0+ 210115 H06 .08+ .19+ 210117 033 .15+ .04- 210112 C51 .42+ .13- 210115 H06 .04+ .26+ 210117 033 .06+ .25+ 210112 C51 .75- .39+ 210115 H06 .00 .22- 210118 I52 .06- .45+ 210113 F52 .18- .06- 210115 F51 .09+ .04+ 210118 I52 .27- .21- 210113 F52 .00 .06+ 210115 F51 .09+ .05+ 210118 I52 .33- .28- 210113 F52 .09- .16+ 210115 F51 .12+ .14+ 210118 I52 .18+ .23- Ephemerides (geocentric): Date (UTC) HH RA Dec delta r elong mag " sig PA ---- -- -- -- ------------- ----------- ------ ------ ----- --- ---- --- 2021 01 21 12 13 45 28.466 +18 16 23.55 .92828 1.4935 102.7 20.6 .430 97 2021 01 21 13 13 45 27.527 +18 19 54.96 .92707 1.4932 102.7 20.6 .435 97 2021 01 21 14 13 45 26.579 +18 23 26.95 .92586 1.4929 102.8 20.6 .440 97 2021 01 21 15 13 45 25.622 +18 26 59.51 .92465 1.4926 102.8 20.6 .444 97 2021 01 21 16 13 45 24.657 +18 30 32.66 .92344 1.4923 102.9 20.5 .449 97 2021 01 21 17 13 45 23.683 +18 34 06.39 .92224 1.4919 103.0 20.5 .454 97 2021 01 21 18 13 45 22.700 +18 37 40.70 .92103 1.4916 103.0 20.5 .458 97 2021 01 21 19 13 45 21.708 +18 41 15.59 .91982 1.4913 103.1 20.5 .463 97 2021 01 21 20 13 45 20.708 +18 44 51.07 .91862 1.4910 103.1 20.5 .468 98 2021 01 21 21 13 45 19.698 +18 48 27.15 .91741 1.4907 103.2 20.5 .473 98 2021 01 21 22 13 45 18.680 +18 52 03.81 .91621 1.4903 103.2 20.5 .478 98 2021 01 21 23 13 45 17.652 +18 55 41.06 .91501 1.4900 103.3 20.5 .482 98 2021 01 22 00 13 45 16.616 +18 59 18.91 .91381 1.4897 103.4 20.5 .487 98 2021 01 22 01 13 45 15.570 +19 02 57.36 .91261 1.4894 103.4 20.5 .492 98 2021 01 22 02 13 45 14.515 +19 06 36.40 .91141 1.4891 103.5 20.5 .497 98 2021 01 22 03 13 45 13.451 +19 10 16.05 .91021 1.4888 103.5 20.5 .502 98 2021 01 22 04 13 45 12.378 +19 13 56.29 .90901 1.4884 103.6 20.5 .507 98 2021 01 22 05 13 45 11.296 +19 17 37.14 .90782 1.4881 103.7 20.5 .512 98 2021 01 22 06 13 45 10.204 +19 21 18.59 .90662 1.4878 103.7 20.5 .517 98 2021 01 22 07 13 45 09.103 +19 25 00.65 .90543 1.4875 103.8 20.5 .522 98 2021 01 22 08 13 45 07.993 +19 28 43.32 .90424 1.4872 103.8 20.5 .527 98 2021 01 22 09 13 45 06.873 +19 32 26.60 .90304 1.4869 103.9 20.5 .532 98 2021 01 22 10 13 45 05.744 +19 36 10.50 .90185 1.4865 103.9 20.5 .537 98 2021 01 22 11 13 45 04.605 +19 39 55.01 .90066 1.4862 104.0 20.5 .543 98 2021 01 22 12 13 45 03.457 +19 43 40.13 .89947 1.4859 104.1 20.5 .548 98 2021 01 22 13 13 45 02.298 +19 47 25.87 .89829 1.4856 104.1 20.5 .553 98 2021 01 22 14 13 45 01.131 +19 51 12.24 .89710 1.4853 104.2 20.5 .558 98 2021 01 22 15 13 44 59.953 +19 54 59.22 .89591 1.4850 104.2 20.5 .564 98 2021 01 22 16 13 44 58.766 +19 58 46.83 .89473 1.4846 104.3 20.5 .569 98 2021 01 22 17 13 44 57.569 +20 02 35.06 .89354 1.4843 104.4 20.5 .574 98 2021 01 22 18 13 44 56.362 +20 06 23.92 .89236 1.4840 104.4 20.5 .579 98 2021 01 22 19 13 44 55.145 +20 10 13.41 .89118 1.4837 104.5 20.5 .585 98 2021 01 22 20 13 44 53.918 +20 14 03.54 .89000 1.4834 104.5 20.5 .590 98 2021 01 22 21 13 44 52.681 +20 17 54.29 .88882 1.4831 104.6 20.5 .596 98 2021 01 22 22 13 44 51.434 +20 21 45.68 .88764 1.4828 104.7 20.4 .601 98 2021 01 22 23 13 44 50.177 +20 25 37.71 .88646 1.4824 104.7 20.4 .607 98 2021 01 23 00 13 44 48.910 +20 29 30.38 .88529 1.4821 104.8 20.4 .612 98 2021 01 23 01 13 44 47.633 +20 33 23.68 .88411 1.4818 104.8 20.4 .618 98 2021 01 23 02 13 44 46.345 +20 37 17.63 .88294 1.4815 104.9 20.4 .623 98 2021 01 23 03 13 44 45.047 +20 41 12.23 .88176 1.4812 104.9 20.4 .629 98 2021 01 23 04 13 44 43.739 +20 45 07.47 .88059 1.4809 105.0 20.4 .634 98 2021 01 23 05 13 44 42.420 +20 49 03.36 .87942 1.4806 105.1 20.4 .640 98 2021 01 23 06 13 44 41.090 +20 52 59.90 .87825 1.4802 105.1 20.4 .646 98 2021 01 23 07 13 44 39.750 +20 56 57.09 .87708 1.4799 105.2 20.4 .651 98 2021 01 23 08 13 44 38.400 +21 00 54.93 .87592 1.4796 105.2 20.4 .657 98 2021 01 23 09 13 44 37.039 +21 04 53.44 .87475 1.4793 105.3 20.4 .663 98 2021 01 23 10 13 44 35.667 +21 08 52.59 .87358 1.4790 105.4 20.4 .668 98 2021 01 23 11 13 44 34.284 +21 12 52.41 .87242 1.4787 105.4 20.4 .674 98